Hourly Weather Korçe

Today, 7 July, Tuesday

Time Temperature Precipitation Wind Pressure Humidity
00:00 +16°C° 0.1 mm 1 mps 661 mmHg 82%
01:00 +16°C° 0 mm 1 mps 661 mmHg 81%
02:00 +15°C° 0 mm 1 mps 660 mmHg 80%
03:00 +15°C° 0 mm 1 mps 660 mmHg 79%
04:00 +15°C° 0 mm 1 mps 660 mmHg 78%
05:00 +18°C° 0 mm 1 mps 660 mmHg 74%
06:00 +20°C° 0 mm 1 mps 661 mmHg 69%
07:00 +22°C° 0 mm 1 mps 662 mmHg 64%
08:00 +23°C° 0 mm 1 mps 663 mmHg 58%
09:00 +25°C° 0 mm 1 mps 663 mmHg 52%
10:00 +27°C° 0 mm 1 mps 664 mmHg 46%
11:00 +27°C° 0.1 mm 2 mps 664 mmHg 46%
12:00 +27°C° 0.1 mm 2 mps 664 mmHg 46%
13:00 +27°C° 0.1 mm 2 mps 664 mmHg 46%
14:00 +27°C° 0.2 mm 2 mps 664 mmHg 50%
15:00 +26°C° 0.2 mm 2 mps 664 mmHg 54%
16:00 +26°C° 0.2 mm 2 mps 664 mmHg 58%
17:00 +24°C° 0.3 mm 2 mps 664 mmHg 65%
18:00 +21°C° 0.3 mm 2 mps 664 mmHg 71%
19:00 +19°C° 0.3 mm 2 mps 664 mmHg 78%
20:00 +18°C° 0 mm 2 mps 664 mmHg 81%
21:00 +17°C° 0 mm 2 mps 664 mmHg 84%
22:00 +16°C° 0 mm 2 mps 664 mmHg 86%
23:00 +16°C° 0 mm 2 mps 664 mmHg 88%

Tomorrow, 8 July, Wednesday

Time Temperature Precipitation Wind Pressure Humidity
00:00 +15°C° 0 mm 2 mps 665 mmHg 89%
01:00 +15°C° 0 mm 2 mps 665 mmHg 90%
02:00 +14°C° 0 mm 2 mps 665 mmHg 91%
03:00 +14°C° 0 mm 2 mps 664 mmHg 91%
04:00 +13°C° 0 mm 2 mps 664 mmHg 92%
05:00 +14°C° 0 mm 2 mps 665 mmHg 86%
06:00 +16°C° 0 mm 2 mps 666 mmHg 81%
07:00 +17°C° 0 mm 2 mps 666 mmHg 75%
08:00 +19°C° 0 mm 2 mps 667 mmHg 69%
09:00 +22°C° 0 mm 1 mps 668 mmHg 62%
10:00 +25°C° 0 mm 1 mps 669 mmHg 55%
11:00 +25°C° 0 mm 1 mps 669 mmHg 52%
12:00 +26°C° 0 mm 1 mps 669 mmHg 49%
13:00 +27°C° 0 mm 1 mps 669 mmHg 45%
14:00 +27°C° 0 mm 2 mps 669 mmHg 48%
15:00 +26°C° 0 mm 2 mps 669 mmHg 51%
16:00 +25°C° 0 mm 3 mps 669 mmHg 55%
17:00 +24°C° 0 mm 2 mps 668 mmHg 61%
18:00 +21°C° 0 mm 2 mps 668 mmHg 68%
19:00 +20°C° 0 mm 1 mps 668 mmHg 75%
20:00 +19°C° 0 mm 1 mps 668 mmHg 77%
21:00 +18°C° 0 mm 1 mps 668 mmHg 79%
22:00 +18°C° 0 mm 1 mps 668 mmHg 81%
23:00 +16°C° 0 mm 1 mps 668 mmHg 82%

Day after tomorrow, 9 July, Thursday

Time Temperature Precipitation Wind Pressure Humidity
00:00 +16°C° 0 mm 1 mps 668 mmHg 84%
01:00 +16°C° 0 mm 1 mps 668 mmHg 85%
02:00 +15°C° 0 mm 1 mps 668 mmHg 85%
03:00 +15°C° 0 mm 1 mps 668 mmHg 86%
04:00 +15°C° 0 mm 1 mps 667 mmHg 86%
05:00 +16°C° 0 mm 1 mps 668 mmHg 81%
06:00 +19°C° 0 mm 1 mps 669 mmHg 76%
07:00 +20°C° 0 mm 1 mps 669 mmHg 71%
08:00 +22°C° 0 mm 1 mps 670 mmHg 66%
09:00 +24°C° 0 mm 1 mps 670 mmHg 61%
10:00 +26°C° 0 mm 1 mps 671 mmHg 56%
11:00 +26°C° 0 mm 1 mps 671 mmHg 53%
12:00 +27°C° 0 mm 2 mps 670 mmHg 50%
13:00 +27°C° 0 mm 2 mps 670 mmHg 47%
14:00 +27°C° 0 mm 2 mps 670 mmHg 49%
15:00 +26°C° 0 mm 2 mps 670 mmHg 50%
16:00 +26°C° 0 mm 3 mps 670 mmHg 52%
17:00 +24°C° 0 mm 2 mps 669 mmHg 59%
18:00 +21°C° 0 mm 2 mps 669 mmHg 65%
19:00 +19°C° 0 mm 2 mps 668 mmHg 72%
20:00 +19°C° 0 mm 1 mps 668 mmHg 73%
21:00 +19°C° 0 mm 1 mps 668 mmHg 75%
22:00 +18°C° 0 mm 1 mps 668 mmHg 76%
23:00 +16°C° 0 mm 1 mps 668 mmHg 77%

10 July, Friday

Time Temperature Precipitation Wind Pressure Humidity
00:00 +16°C° 0 mm 1 mps 668 mmHg 79%
01:00 +16°C° 0 mm 1 mps 668 mmHg 80%
02:00 +15°C° 0 mm 2 mps 668 mmHg 81%
03:00 +15°C° 0 mm 2 mps 667 mmHg 82%
04:00 +15°C° 0 mm 2 mps 667 mmHg 84%
05:00 +16°C° 0 mm 2 mps 668 mmHg 78%
06:00 +18°C° 0 mm 2 mps 668 mmHg 73%
07:00 +20°C° 0 mm 2 mps 669 mmHg 68%
08:00 +21°C° 0 mm 2 mps 669 mmHg 62%
09:00 +24°C° 0 mm 2 mps 670 mmHg 55%
10:00 +26°C° 0 mm 2 mps 670 mmHg 48%
11:00 +26°C° 0 mm 2 mps 670 mmHg 46%
12:00 +27°C° 0 mm 2 mps 670 mmHg 44%
13:00 +28°C° 0 mm 2 mps 670 mmHg 41%
14:00 +27°C° 0 mm 2 mps 669 mmHg 44%
15:00 +27°C° 0 mm 2 mps 669 mmHg 46%
16:00 +26°C° 0 mm 2 mps 669 mmHg 49%
17:00 +24°C° 0 mm 2 mps 668 mmHg 57%
18:00 +21°C° 0 mm 2 mps 668 mmHg 65%
19:00 +21°C° 0 mm 1 mps 668 mmHg 73%
20:00 +20°C° 0 mm 1 mps 668 mmHg 74%
21:00 +19°C° 0 mm 1 mps 668 mmHg 76%
22:00 +18°C° 0 mm 1 mps 668 mmHg 78%
23:00 +18°C° 0 mm 1 mps 667 mmHg 78%

11 July, Saturday

Time Temperature Precipitation Wind Pressure Humidity
00:00 +16°C° 0 mm 1 mps 667 mmHg 78%
01:00 +16°C° 0 mm 1 mps 667 mmHg 78%
02:00 +15°C° 0 mm 1 mps 667 mmHg 78%
03:00 +15°C° 0 mm 1 mps 666 mmHg 78%
04:00 +15°C° 0 mm 1 mps 666 mmHg 77%
05:00 +18°C° 0 mm 1 mps 667 mmHg 72%
06:00 +19°C° 0 mm 1 mps 667 mmHg 66%
07:00 +21°C° 0 mm 1 mps 668 mmHg 60%
08:00 +23°C° 0 mm 1 mps 669 mmHg 54%
09:00 +25°C° 0 mm 1 mps 669 mmHg 48%
10:00 +27°C° 0 mm 1 mps 670 mmHg 42%
11:00 +27°C° 0 mm 1 mps 669 mmHg 40%
12:00 +28°C° 0 mm 1 mps 669 mmHg 39%
13:00 +28°C° 0 mm 2 mps 669 mmHg 37%
14:00 +28°C° 0 mm 2 mps 669 mmHg 40%
15:00 +27°C° 0 mm 2 mps 668 mmHg 43%
16:00 +27°C° 0 mm 3 mps 668 mmHg 46%
17:00 +25°C° 0 mm 2 mps 668 mmHg 54%
18:00 +23°C° 0 mm 2 mps 667 mmHg 62%
19:00 +21°C° 0 mm 1 mps 667 mmHg 70%
20:00 +20°C° 0 mm 1 mps 667 mmHg 71%
21:00 +19°C° 0 mm 1 mps 667 mmHg 72%
22:00 +18°C° 0 mm 1 mps 667 mmHg 74%
23:00 +18°C° 0 mm 1 mps 667 mmHg 74%

12 July, Sunday

Time Temperature Precipitation Wind Pressure Humidity
00:00 +18°C° 0 mm 1 mps 667 mmHg 75%
01:00 +18°C° 0 mm 1 mps 666 mmHg 75%
02:00 +16°C° 0 mm 1 mps 666 mmHg 76%
03:00 +16°C° 0 mm 1 mps 666 mmHg 76%
04:00 +16°C° 0 mm 1 mps 666 mmHg 77%
05:00 +19°C° 0 mm 1 mps 666 mmHg 72%
06:00 +21°C° 0 mm 1 mps 667 mmHg 67%
07:00 +23°C° 0 mm 1 mps 668 mmHg 62%
08:00 +24°C° 0 mm 1 mps 668 mmHg 56%
09:00 +26°C° 0 mm 1 mps 669 mmHg 50%
10:00 +27°C° 0 mm 1 mps 669 mmHg 44%
11:00 +28°C° 0 mm 1 mps 669 mmHg 44%
12:00 +28°C° 0 mm 2 mps 669 mmHg 44%
13:00 +28°C° 0 mm 2 mps 669 mmHg 44%
14:00 +27°C° 0.1 mm 2 mps 668 mmHg 46%
15:00 +27°C° 0.1 mm 2 mps 668 mmHg 49%
16:00 +27°C° 0.1 mm 3 mps 668 mmHg 51%
17:00 +25°C° 0.3 mm 2 mps 668 mmHg 60%
18:00 +23°C° 0.3 mm 2 mps 667 mmHg 69%
19:00 +20°C° 0.3 mm 2 mps 667 mmHg 77%
20:00 +19°C° 0.1 mm 2 mps 667 mmHg 79%
21:00 +20°C° 0.1 mm 1 mps 667 mmHg 81%
22:00 +19°C° 0.1 mm 1 mps 667 mmHg 83%
23:00 +18°C° 0 mm 1 mps 667 mmHg 83%
Show more